Time,TemperatureF,DewpointF,PressureIn,WindDirection,WindDirectionDegrees,WindSpeedMPH,WindSpeedGustMPH,Humidity,HourlyPrecipIn,Conditions,Clouds,dailyrainin,SoftwareType,DateUTC
2013-02-10 00:01:00,16.0,4.0,30.23,NW,313,9.0,15.0,58,0.00,,,0.23,,2013-02-10 05:01:00,
2013-02-10 00:11:00,16.0,4.0,30.23,NW,313,9.0,15.0,58,0.00,,,0.23,,2013-02-10 05:11:00,
2013-02-10 00:22:00,16.0,3.0,30.24,NW,317,9.0,14.0,56,0.00,,,0.18,,2013-02-10 05:22:00,
2013-02-10 00:32:00,16.0,2.0,30.24,NW,312,11.0,17.0,54,0.00,,,0.18,,2013-02-10 05:32:00,
2013-02-10 00:42:00,16.0,2.0,30.24,NW,312,11.0,17.0,54,0.00,,,0.18,,2013-02-10 05:42:00,
2013-02-10 00:52:00,16.0,3.0,30.24,WNW,297,7.0,14.0,57,0.00,,,0.18,,2013-02-10 05:52:00,
2013-02-10 01:02:00,16.0,2.0,30.25,WNW,289,8.0,12.0,54,0.00,,,0.18,,2013-02-10 06:02:00,
2013-02-10 01:11:00,16.0,2.0,30.25,WNW,289,8.0,12.0,54,0.00,,,0.18,,2013-02-10 06:11:00,
2013-02-10 01:21:00,16.0,2.0,30.25,WNW,295,8.0,15.0,54,0.00,,,0.18,,2013-02-10 06:21:00,
2013-02-10 01:32:00,16.0,3.0,30.25,NW,321,9.0,15.0,56,0.00,,,0.18,,2013-02-10 06:32:00,
2013-02-10 01:42:00,16.0,3.0,30.25,NW,321,9.0,15.0,56,0.00,,,0.18,,2013-02-10 06:42:00,
2013-02-10 01:52:00,16.0,3.0,30.26,West,278,9.0,14.0,55,0.00,,,0.18,,2013-02-10 06:52:00,
2013-02-10 02:01:00,16.0,3.0,30.27,West,276,10.0,15.0,55,0.00,,,0.18,,2013-02-10 07:01:00,
2013-02-10 02:11:00,16.0,3.0,30.27,West,276,10.0,15.0,55,0.00,,,0.18,,2013-02-10 07:11:00,
2013-02-10 02:21:00,16.0,3.0,30.27,WNW,295,9.0,13.0,55,0.00,,,0.15,,2013-02-10 07:21:00,
2013-02-10 02:32:00,16.0,2.0,30.28,WNW,291,5.0,14.0,54,0.00,,,0.15,,2013-02-10 07:32:00,
2013-02-10 02:42:00,16.0,2.0,30.28,WNW,291,5.0,14.0,54,0.00,,,0.15,,2013-02-10 07:42:00,
2013-02-10 02:52:00,15.0,1.0,30.29,WNW,290,1.0,4.0,54,0.00,,,0.15,,2013-02-10 07:52:00,
2013-02-10 03:01:00,14.0,0.0,30.29,West,270,0.0,3.0,54,0.00,,,0.15,,2013-02-10 08:01:00,
2013-02-10 03:11:00,14.0,0.0,30.29,West,270,0.0,3.0,54,0.00,,,0.15,,2013-02-10 08:11:00,
2013-02-10 03:21:00,13.0,1.0,30.29,West,270,0.0,1.0,58,0.00,,,0.13,,2013-02-10 08:21:00,
2013-02-10 03:32:00,12.0,0.0,30.29,West,270,0.0,1.0,59,0.00,,,0.13,,2013-02-10 08:32:00,
2013-02-10 03:43:00,12.0,0.0,30.29,West,270,0.0,1.0,59,0.00,,,0.13,,2013-02-10 08:43:00,
2013-02-10 03:52:00,11.0,1.0,30.29,West,270,0.0,1.0,62,0.01,,,0.14,,2013-02-10 08:52:00,
2013-02-10 04:02:00,11.0,0.0,30.29,West,270,0.0,1.0,61,0.01,,,0.14,,2013-02-10 09:02:00,
2013-02-10 04:11:00,11.0,0.0,30.29,West,270,0.0,1.0,61,0.01,,,0.14,,2013-02-10 09:11:00,
2013-02-10 04:21:00,9.0,-1.0,30.29,West,270,0.0,2.0,63,0.01,,,0.11,,2013-02-10 09:21:00,
2013-02-10 04:32:00,10.0,0.0,30.32,West,269,1.0,3.0,62,0.01,,,0.11,,2013-02-10 09:32:00,
2013-02-10 04:42:00,10.0,0.0,30.32,West,269,1.0,3.0,62,0.01,,,0.11,,2013-02-10 09:42:00,
2013-02-10 04:52:00,12.0,1.0,30.32,West,269,0.0,5.0,60,0.00,,,0.11,,2013-02-10 09:52:00,
2013-02-10 05:01:00,13.0,1.0,30.33,West,269,2.0,4.0,57,0.00,,,0.11,,2013-02-10 10:01:00,
2013-02-10 05:11:00,13.0,1.0,30.33,West,269,2.0,4.0,57,0.00,,,0.11,,2013-02-10 10:11:00,
2013-02-10 05:21:00,13.0,1.0,30.33,West,269,2.0,4.0,57,0.00,,,0.11,,2013-02-10 10:21:00,
2013-02-10 05:31:00,12.0,0.0,30.34,West,269,0.0,3.0,58,0.01,,,0.11,,2013-02-10 10:31:00,
2013-02-10 05:42:00,12.0,0.0,30.34,West,269,0.0,3.0,58,0.01,,,0.11,,2013-02-10 10:42:00,
2013-02-10 05:52:00,12.0,0.0,30.35,West,269,2.0,5.0,57,0.01,,,0.11,,2013-02-10 10:52:00,
2013-02-10 06:01:00,12.0,0.0,30.35,West,269,2.0,5.0,57,0.01,,,0.11,,2013-02-10 11:01:00,
2013-02-10 06:11:00,12.0,0.0,30.35,West,269,2.0,5.0,57,0.01,,,0.11,,2013-02-10 11:11:00,
2013-02-10 06:22:00,13.0,1.0,30.34,WNW,288,0.0,4.0,57,0.01,,,0.11,,2013-02-10 11:22:00,
2013-02-10 06:32:00,13.0,2.0,30.34,WNW,299,2.0,5.0,61,0.00,,,0.10,,2013-02-10 11:32:00,
2013-02-10 06:42:00,13.0,2.0,30.34,WNW,299,2.0,5.0,61,0.00,,,0.10,,2013-02-10 11:42:00,
2013-02-10 06:52:00,13.0,1.0,30.35,NW,308,0.0,3.0,58,0.00,,,0.10,,2013-02-10 11:52:00,
2013-02-10 07:02:00,13.0,0.0,30.36,West,265,2.0,4.0,55,0.00,,,0.10,,2013-02-10 12:02:00,
2013-02-10 07:12:00,13.0,0.0,30.36,West,265,2.0,4.0,55,0.00,,,0.10,,2013-02-10 12:12:00,
2013-02-10 07:21:00,12.0,0.0,30.37,West,266,0.0,3.0,59,0.00,,,0.10,,2013-02-10 12:21:00,
2013-02-10 07:32:00,11.0,1.0,30.38,West,266,0.0,2.0,62,0.00,,,0.10,,2013-02-10 12:32:00,
2013-02-10 07:42:00,11.0,1.0,30.38,West,266,0.0,2.0,62,0.00,,,0.10,,2013-02-10 12:42:00,
2013-02-10 07:52:00,10.0,1.0,30.39,West,266,0.0,1.0,65,0.00,,,0.10,,2013-02-10 12:52:00,
2013-02-10 08:02:00,10.0,1.0,30.39,West,266,0.0,1.0,65,0.00,,,0.10,,2013-02-10 13:02:00,
2013-02-10 08:11:00,10.0,1.0,30.39,West,266,0.0,1.0,65,0.00,,,0.10,,2013-02-10 13:11:00,
2013-02-10 08:21:00,11.0,2.0,30.40,NW,319,1.0,3.0,66,0.00,,,0.10,,2013-02-10 13:21:00,
2013-02-10 08:31:00,13.0,2.0,30.40,NW,322,3.0,5.0,62,0.00,,,0.10,,2013-02-10 13:31:00,
2013-02-10 08:42:00,13.0,2.0,30.40,NW,322,3.0,5.0,62,0.00,,,0.10,,2013-02-10 13:42:00,
2013-02-10 08:51:00,14.0,1.0,30.40,NW,322,2.0,6.0,56,0.00,,,0.10,,2013-02-10 13:51:00,
2013-02-10 09:02:00,15.0,2.0,30.41,WNW,294,3.0,6.0,55,0.00,,,0.10,,2013-02-10 14:02:00,
2013-02-10 09:11:00,15.0,2.0,30.41,WNW,294,3.0,6.0,55,0.00,,,0.10,,2013-02-10 14:11:00,
2013-02-10 09:21:00,17.0,2.0,30.41,NW,308,6.0,9.0,52,0.00,,,0.10,,2013-02-10 14:21:00,
2013-02-10 09:32:00,18.0,2.0,30.41,NW,306,6.0,10.0,49,0.00,,,0.10,,2013-02-10 14:32:00,
2013-02-10 09:42:00,18.0,2.0,30.41,NW,306,6.0,10.0,49,0.00,,,0.10,,2013-02-10 14:42:00,
2013-02-10 09:52:00,19.0,3.0,30.41,NW,325,5.0,8.0,50,0.00,,,0.10,,2013-02-10 14:52:00,
2013-02-10 10:02:00,20.0,2.0,30.41,West,276,5.0,11.0,45,0.00,,,0.10,,2013-02-10 15:02:00,
2013-02-10 10:11:00,20.0,2.0,30.41,West,276,5.0,11.0,45,0.00,,,0.10,,2013-02-10 15:11:00,
2013-02-10 10:22:00,22.0,3.0,30.42,NW,308,8.0,11.0,43,0.00,,,0.10,,2013-02-10 15:22:00,
2013-02-10 10:32:00,22.0,3.0,30.42,WNW,301,6.0,9.0,44,0.00,,,0.10,,2013-02-10 15:32:00,
2013-02-10 10:42:00,22.0,3.0,30.42,WNW,301,6.0,9.0,44,0.00,,,0.10,,2013-02-10 15:42:00,
2013-02-10 10:52:00,23.0,5.0,30.42,West,268,4.0,9.0,45,0.00,,,0.10,,2013-02-10 15:52:00,
2013-02-10 11:02:00,24.0,3.0,30.42,NW,315,5.0,7.0,39,0.00,,,0.10,,2013-02-10 16:02:00,
2013-02-10 11:12:00,25.0,6.0,30.42,WNW,288,3.0,6.0,44,0.00,,,0.10,,2013-02-10 16:12:00,
2013-02-10 11:22:00,25.0,6.0,30.42,WNW,288,3.0,6.0,44,0.00,,,0.10,,2013-02-10 16:22:00,
2013-02-10 11:32:00,26.0,6.0,30.43,West,265,3.0,11.0,42,0.00,,,0.07,,2013-02-10 16:32:00,
2013-02-10 11:42:00,27.0,4.0,30.42,WNW,290,5.0,8.0,37,0.00,,,0.07,,2013-02-10 16:42:00,
2013-02-10 11:52:00,27.0,4.0,30.42,WNW,290,5.0,8.0,37,0.00,,,0.07,,2013-02-10 16:52:00,
2013-02-10 12:02:00,28.0,6.0,30.42,WNW,298,6.0,11.0,38,0.00,,,0.07,,2013-02-10 17:02:00,
2013-02-10 12:12:00,28.0,6.0,30.42,WNW,298,6.0,11.0,38,0.00,,,0.07,,2013-02-10 17:12:00,
2013-02-10 12:22:00,29.0,5.0,30.42,West,265,4.0,8.0,36,0.00,,,0.07,,2013-02-10 17:22:00,
2013-02-10 12:32:00,29.0,5.0,30.41,WNW,301,6.0,11.0,36,0.00,,,0.04,,2013-02-10 17:32:00,
2013-02-10 12:42:00,30.0,8.0,30.40,NW,304,2.0,8.0,38,0.00,,,0.04,,2013-02-10 17:42:00,
2013-02-10 12:52:00,30.0,8.0,30.40,NW,304,2.0,8.0,38,0.00,,,0.04,,2013-02-10 17:52:00,
2013-02-10 13:02:00,29.0,11.0,30.39,NW,313,0.0,7.0,46,0.00,,,0.04,,2013-02-10 18:02:00,
2013-02-10 13:12:00,31.0,5.0,30.39,WNW,293,1.0,5.0,32,0.00,,,0.04,,2013-02-10 18:12:00,
2013-02-10 13:22:00,31.0,5.0,30.39,WNW,293,1.0,5.0,32,0.00,,,0.04,,2013-02-10 18:22:00,
2013-02-10 13:32:00,31.0,7.0,30.38,WNW,293,1.0,4.0,36,0.00,,,0.04,,2013-02-10 18:32:00,
2013-02-10 13:42:00,31.0,7.0,30.38,WNW,293,1.0,4.0,36,0.00,,,0.04,,2013-02-10 18:42:00,
2013-02-10 13:52:00,31.0,7.0,30.38,WNW,293,1.0,4.0,36,0.00,,,0.04,,2013-02-10 18:52:00,
2013-02-10 14:02:00,33.0,6.0,30.37,West,269,1.0,5.0,32,0.00,,,0.04,,2013-02-10 19:02:00,
2013-02-10 14:12:00,33.0,4.0,30.37,West,269,2.0,4.0,29,0.00,,,0.04,,2013-02-10 19:12:00,
2013-02-10 14:22:00,33.0,4.0,30.37,West,269,2.0,4.0,29,0.00,,,0.04,,2013-02-10 19:22:00,
2013-02-10 14:32:00,34.0,8.0,30.37,West,269,0.0,2.0,33,0.00,,,0.04,,2013-02-10 19:32:00,
2013-02-10 14:43:00,34.0,7.0,30.37,West,269,0.0,1.0,32,0.00,,,0.04,,2013-02-10 19:43:00,
2013-02-10 14:52:00,34.0,7.0,30.37,West,269,0.0,1.0,32,0.00,,,0.04,,2013-02-10 19:52:00,
2013-02-10 15:02:00,36.0,8.0,30.37,West,273,0.0,4.0,30,0.00,,,0.04,,2013-02-10 20:02:00,
2013-02-10 15:11:00,36.0,8.0,30.37,West,273,0.0,4.0,30,0.00,,,0.04,,2013-02-10 20:11:00,
2013-02-10 15:22:00,35.0,8.0,30.37,WNW,288,2.0,4.0,32,0.00,,,0.04,,2013-02-10 20:22:00,
2013-02-10 15:32:00,35.0,9.0,30.37,West,271,3.0,6.0,34,0.00,,,0.02,,2013-02-10 20:32:00,
2013-02-10 15:42:00,35.0,9.0,30.37,West,269,1.0,5.0,33,0.00,,,0.02,,2013-02-10 20:42:00,
2013-02-10 15:52:00,35.0,9.0,30.37,West,269,1.0,5.0,33,0.00,,,0.02,,2013-02-10 20:52:00,
2013-02-10 16:02:00,36.0,10.0,30.38,WNW,296,0.0,5.0,34,0.00,,,0.02,,2013-02-10 21:02:00,
2013-02-10 16:22:00,35.0,11.0,30.36,NW,313,0.0,4.0,37,0.00,,,0.02,,2013-02-10 21:22:00,
2013-02-10 16:32:00,36.0,12.0,30.36,NW,313,0.0,1.0,37,0.00,,,0.02,,2013-02-10 21:32:00,
2013-02-10 16:42:00,37.0,14.0,30.36,NW,313,0.0,1.0,39,0.00,,,0.02,,2013-02-10 21:42:00,
2013-02-10 16:52:00,37.0,14.0,30.36,NW,313,0.0,1.0,39,0.00,,,0.02,,2013-02-10 21:52:00,
2013-02-10 17:02:00,36.0,17.0,30.35,NW,313,0.0,0.0,46,0.00,,,0.02,,2013-02-10 22:02:00,
2013-02-10 17:12:00,35.0,17.0,30.35,NW,313,0.0,1.0,48,0.00,,,0.02,,2013-02-10 22:12:00,
2013-02-10 17:22:00,35.0,17.0,30.35,NW,313,0.0,1.0,48,0.00,,,0.02,,2013-02-10 22:22:00,
2013-02-10 17:32:00,33.0,17.0,30.37,NW,313,0.0,0.0,51,0.00,,,0.02,,2013-02-10 22:32:00,
2013-02-10 17:42:00,31.0,17.0,30.37,NW,313,0.0,0.0,55,0.00,,,0.02,,2013-02-10 22:42:00,
2013-02-10 17:52:00,31.0,17.0,30.37,NW,313,0.0,0.0,55,0.00,,,0.02,,2013-02-10 22:52:00,
2013-02-10 18:02:00,29.0,16.0,30.37,NW,313,0.0,1.0,57,0.00,,,0.02,,2013-02-10 23:02:00,
2013-02-10 18:22:00,27.0,14.0,30.37,NW,313,0.0,1.0,58,0.00,,,0.02,,2013-02-10 23:22:00,
2013-02-10 18:32:00,26.0,14.0,30.37,NW,313,0.0,1.0,60,0.00,,,0.02,,2013-02-10 23:32:00,
2013-02-10 18:42:00,25.0,12.0,30.37,NW,313,0.0,0.0,57,0.00,,,0.02,,2013-02-10 23:42:00,
2013-02-10 18:52:00,25.0,12.0,30.37,NW,313,0.0,0.0,57,0.00,,,0.02,,2013-02-10 23:52:00,
2013-02-10 19:02:00,24.0,11.0,30.37,NW,313,0.0,0.0,57,0.00,,,0.02,,2013-02-11 00:02:00,
2013-02-10 19:11:00,23.0,10.0,30.37,NW,313,0.0,1.0,58,0.00,,,0.02,,2013-02-11 00:11:00,
2013-02-10 19:22:00,23.0,10.0,30.37,NW,313,0.0,1.0,58,0.00,,,0.02,,2013-02-11 00:22:00,
2013-02-10 19:32:00,22.0,10.0,30.38,NW,313,0.0,0.0,60,0.00,,,0.02,,2013-02-11 00:32:00,
2013-02-10 19:42:00,22.0,11.0,30.38,NW,313,0.0,1.0,61,0.00,,,0.02,,2013-02-11 00:42:00,
2013-02-10 19:51:00,22.0,11.0,30.38,NW,313,0.0,1.0,61,0.00,,,0.02,,2013-02-11 00:51:00,
2013-02-10 20:01:00,21.0,10.0,30.38,NW,313,0.0,1.0,61,0.00,,,0.02,,2013-02-11 01:01:00,
2013-02-10 20:11:00,21.0,10.0,30.38,NW,313,0.0,1.0,61,0.00,,,0.02,,2013-02-11 01:11:00,
2013-02-10 20:21:00,20.0,9.0,30.38,NW,313,0.0,0.0,61,0.00,,,0.02,,2013-02-11 01:21:00,
2013-02-10 20:32:00,19.0,9.0,30.37,NW,313,0.0,0.0,64,0.00,,,0.02,,2013-02-11 01:32:00,
2013-02-10 20:42:00,19.0,7.0,30.37,NW,313,0.0,0.0,60,0.00,,,0.02,,2013-02-11 01:42:00,
2013-02-10 20:52:00,19.0,7.0,30.37,NW,313,0.0,0.0,60,0.00,,,0.02,,2013-02-11 01:52:00,
2013-02-10 21:01:00,19.0,9.0,30.39,NW,313,0.0,0.0,64,0.00,,,0.02,,2013-02-11 02:01:00,
2013-02-10 21:11:00,19.0,9.0,30.39,NW,313,0.0,0.0,64,0.00,,,0.02,,2013-02-11 02:11:00,
2013-02-10 21:21:00,18.0,9.0,30.39,NW,313,0.0,1.0,66,0.00,,,0.02,,2013-02-11 02:21:00,
2013-02-10 21:32:00,17.0,7.0,30.38,NW,313,0.0,0.0,65,0.00,,,0.02,,2013-02-11 02:32:00,
2013-02-10 21:42:00,17.0,8.0,30.38,NW,313,0.0,0.0,68,0.00,,,0.02,,2013-02-11 02:42:00,
2013-02-10 21:52:00,17.0,8.0,30.38,NW,313,0.0,0.0,68,0.00,,,0.02,,2013-02-11 02:52:00,
2013-02-10 22:02:00,16.0,7.0,30.38,NW,313,0.0,0.0,68,0.00,,,0.02,,2013-02-11 03:02:00,
2013-02-10 22:11:00,16.0,7.0,30.38,NW,313,0.0,0.0,68,0.00,,,0.02,,2013-02-11 03:11:00,
2013-02-10 22:21:00,15.0,7.0,30.38,NW,313,0.0,2.0,69,0.00,,,0.02,,2013-02-11 03:21:00,
2013-02-10 22:32:00,15.0,7.0,30.37,NW,313,0.0,0.0,69,0.00,,,0.02,,2013-02-11 03:32:00,
2013-02-10 22:42:00,14.0,6.0,30.37,NW,313,0.0,0.0,70,0.00,,,0.02,,2013-02-11 03:42:00,
2013-02-10 22:52:00,14.0,6.0,30.37,NW,313,0.0,0.0,70,0.00,,,0.02,,2013-02-11 03:52:00,
2013-02-10 23:02:00,14.0,6.0,30.37,NW,313,0.0,0.0,70,0.00,,,0.02,,2013-02-11 04:02:00,
2013-02-10 23:11:00,14.0,6.0,30.37,NW,313,0.0,0.0,70,0.00,,,0.02,,2013-02-11 04:11:00,
2013-02-10 23:22:00,14.0,6.0,30.37,NW,313,0.0,0.0,70,0.00,,,0.02,,2013-02-11 04:22:00,
2013-02-10 23:32:00,14.0,6.0,30.37,NW,313,0.0,1.0,69,0.00,,,0.02,,2013-02-11 04:32:00,
2013-02-10 23:42:00,14.0,6.0,30.37,NW,313,0.0,1.0,69,0.00,,,0.02,,2013-02-11 04:42:00,
2013-02-10 23:52:00,14.0,6.0,30.37,NW,313,0.0,0.0,71,0.00,,,0.02,,2013-02-11 04:52:00,